Location: Munkebjergskolens Observatorium
(55.3864°N, 10.3987°E)
Time: 23:15:03
(UTC+01:00)

Envisat - Pass Details

Date: 05 December 2022
Orbit: 763 x 765 km, 98.2° (Epoch: 01 February)

Event Time Altitude Azimuth Distance (km) Brightness Sun altitude
Rises 07:21:33 0° 8° (N) 3,249 6.0 -8.6°
Reaches altitude 10° 07:25:40 10° 335° (NNW) 2,317 5.0 -8.1°
Maximum altitude 07:27:06 11° 318° (NW) 2,233 4.8 -7.9°
Drops below altitude 10° 07:28:33 10° 302° (WNW) 2,314 4.8 -7.7°
Enters shadow 07:28:58 - 297° (WNW) 2,366 4.8 -7.7°
